TIANMU-1 07

Last updated on Wed Sep 17 2025 00:02:23 GMT+0000 (Coordinated Universal Time)

1 57399U 23101A 25259.64610277 .00006719 00000+0 26192-3 0 9991 2 57399 97.3021 311.4588 0004978 46.9131 313.2523 15.26260619119861
UTC large
Height (km)
Speed (km/s)
/
Latitude / Longitude
Inclination (degrees)
Orbital Period (minutes)
Azimuth
Elevation
Range (km)
Doppler Factor

Next 0 passes for location: London (51.5072 / 0.1276)

Sorry there are no passes over London.